This is the latest recevied weather packets stored in our database for station/object NN5DX-13. If no packets are shown the sender has not sent any weather packets the latest 10 day(s).
| Time | Temp. | Humidity | Pressure | Rain* | Wind** | Luminosity | Snow |
|---|---|---|---|---|---|---|---|
| 1777826117 | 22.22° C | 45% | 1022.2 hPa | 0 mm | - | - | - |
| 1777825817 | 21.67° C | 46% | 1022.2 hPa | 0 mm | - | - | - |
| 1777825517 | 21.11° C | 47% | 1022.3 hPa | 0 mm | - | - | - |
| 1777825218 | 21.11° C | 46% | 1022.2 hPa | 0 mm | - | - | - |
| 1777824917 | 21.11° C | 47% | 1022.2 hPa | 0 mm | - | - | - |
| 1777824617 | 20.56° C | 47% | 1022.2 hPa | 0 mm | - | - | - |
| 1777824318 | 21.11° C | 47% | 1022.4 hPa | 0 mm | - | - | - |
| 1777824017 | 20.56° C | 47% | 1022.6 hPa | 0 mm | - | - | - |
| 1777823717 | 20.56° C | 48% | 1022.5 hPa | 0 mm | - | - | - |
| 1777823417 | 20° C | 49% | 1022.4 hPa | 0 mm | - | - | - |
| 1777823117 | 20° C | 48% | 1022.4 hPa | 0 mm | - | - | - |
| 1777822817 | 20° C | 49% | 1022.5 hPa | 0 mm | - | - | - |
| 1777822517 | 19.44° C | 49% | 1022.3 hPa | 0 mm | - | - | - |
| 1777822217 | 19.44° C | 50% | 1022.5 hPa | 0 mm | - | - | - |
| 1777821917 | 19.44° C | 50% | 1022.6 hPa | 0 mm | - | - | - |
| 1777821617 | 19.44° C | 52% | 1022.7 hPa | 0 mm | - | - | - |
| 1777821318 | 18.89° C | 52% | 1022.4 hPa | 0 mm | - | - | - |
| 1777821017 | 18.89° C | 53% | 1022.5 hPa | 0 mm | - | - | - |
| 1777820717 | 18.89° C | 53% | 1022.5 hPa | 0 mm | - | - | - |
| 1777820418 | 18.89° C | 53% | 1022.7 hPa | 0 mm | - | - | - |
| 1777820117 | 18.89° C | 54% | 1022.7 hPa | 0 mm | - | - | - |
| 1777819817 | 18.33° C | 55% | 1022.4 hPa | 0 mm | - | - | - |
| 1777819519 | 18.33° C | 55% | 1022.3 hPa | 0 mm | - | - | - |
| 1777819217 | 18.33° C | 55% | 1022.4 hPa | 0 mm | - | - | - |
| 1777818917 | 18.33° C | 55% | 1022.3 hPa | 0 mm | - | - | - |
* Rain latest hour (hover to see other rain measurements)
** Current wind speed in m/s (hover to see current wind gust speed)